Overview Statistics Trail Chart Weather Telemetry Raw packets
 

This is the latest recevied weather packets stored in our database for station/object LU4EGV-13. If no packets are shown the sender has not sent any weather packets the latest 10 day(s).

<< 26 27 28 29 30 31 32 >>
Time Temp. Humidity Pressure Rain* Wind** Luminosity Snow
1788314543 21.11° C 50% 1017 hPa 0 mm - - -
1788314538 21.67° C 50% 1017.1 hPa 0 mm - - -
1788314534 21.11° C 50% 1017.1 hPa 0 mm - - -
1788314530 20.56° C 54% 1017.1 hPa 0 mm - - -
1788314526 20° C 55% 1017.3 hPa 0 mm - - -
1788314522 20° C 57% 1017.3 hPa 0 mm - - -
1788314518 20° C 59% 1017.4 hPa 0 mm - - -
1788314514 20.56° C 57% 1017.6 hPa 0 mm - - -
1788314510 20.56° C 56% 1017.8 hPa 0 mm - - -
1788314506 20° C 58% 1018 hPa 0 mm - - -
1788314502 19.44° C 60% 1018.2 hPa 0 mm - - -
1788314498 19.44° C 60% 1018.4 hPa 0 mm - - -
1788314494 19.44° C 59% 1018.5 hPa 0 mm - - -
1788314490 19.44° C 61% 1018.5 hPa 0 mm - - -
1788314486 19.44° C 62% 1018.4 hPa 0 mm - - -
1788314482 18.89° C 62% 1018.6 hPa 0 mm - - -
1788314478 18.33° C 63% 1018.7 hPa 0 mm - - -
1788314474 18.33° C 65% 1018.5 hPa 0 mm - - -
1788314470 18.33° C 67% 1018.6 hPa 0 mm - - -
1788314466 17.78° C 68% 1018.6 hPa 0 mm - - -
1788314462 17.78° C 68% 1018.5 hPa 0 mm - - -
1788314458 17.78° C 68% 1018.4 hPa 0 mm - - -
1788314454 12.78° C 92% 1017.8 hPa 0 mm - - -
1788314449 17.22° C 69% 1018.3 hPa 0 mm - - -
1788314445 17.22° C 71% 1018.4 hPa 0 mm - - -

* Rain latest hour (hover to see other rain measurements)
** Current wind speed in m/s (hover to see current wind gust speed)